Login
Access
Login with your mtb-forum.it nickname and password.


You do not have an account? Sign up here for free

ulix

Last training unit 17/05/2017
0
Followers
24 678 Km
itineraries
246 456 m
of total vertical gain
987
hours of riding
24.71 Km/h
average speed
145
average HR


17/05/2017 Show to everybody Giro dell`ora di pranzo 1.32 Km 17 m 00:03:58 19.97 Km\h Look 965 SR
17/05/2017 Show to everybody Rientro da Parzanica 13.22 Km 148 m 00:38:57 20.37 Km\h Look 965 SR
17/05/2017 Show to everybody Parzanica 101.32 Km 922 m 04:15:25 23.8 Km\h Look 965 SR
13/05/2017 Show to everybody Giro pomeridiano 33.06 Km 930 m 01:51:22 17.81 Km\h Look 965 SR
13/05/2017 Show to everybody Trafficanti 31.5 Km 634 m 01:20:50 23.38 Km\h Look 965 SR
07/05/2017 Show to everybody Giro dei Pasta 57.74 Km 519 m 02:18:34 25 Km\h Look 965 SR
05/05/2017 Show to everybody Clusone — Sovere — Valle Rossa 56.52 Km 681 m 02:11:31 25.79 Km\h Look 965 SR
30/01/2016 Show to everybody Allenamento 30-01-2016 alle 13:49:43.536 23.05 Km 148 m 00:55:46 24.8 Km\h Cannondale Supersix
29/01/2016 Show to everybody Allenamento 29-01-2016 alle 10:37:36.053 74.24 Km 581 m 02:55:15 25.42 Km\h Cannondale Supersix
25/01/2016 Show to everybody Allenamento 25-01-2016 alle 14:08:54.850 37.27 Km 843 m 02:03:32 18.1 Km\h Cannondale Supersix
12/09/2015 Show to everybody 12_09_2015 clusone - sovere - valle rossa 60.25 Km 736 m 02:24:22 25.04 Km\h Look 965 SR
11/09/2015 Show to everybody 11_09_2015 giro pomeridiano 40.97 Km 209 m 01:29:00 27.62 Km\h Look 965 SR
10/09/2015 Show to everybody 10_09_2015 clusone - cerete - songavazzo 65.99 Km 573 m 02:26:30 27.03 Km\h Look 965 SR
09/09/2015 Show to everybody 09_09_2015 ponte nossa (forato) 20.08 Km 119 m 00:44:22 27.15 Km\h Look 965 SR
28/08/2015 Show to everybody 28_08_2015 valbondione 74.97 Km 581 m 02:46:35 27 Km\h Look 965 SR
27/08/2015 Show to everybody 27_08_2015 rovetta 53.72 Km 404 m 01:56:25 27.69 Km\h Look 965 SR
26/08/2015 Show to everybody 26_08_2015 roncola s_b 86.66 Km 1118 m 03:35:09 24.17 Km\h Look 965 SR
25/08/2015 Show to everybody 25_08_2015 gandosso 80.48 Km 593 m 03:06:22 25.91 Km\h Look 965 SR
22/08/2015 Show to everybody 22_08_2015 ganda - selvino 37.26 Km 812 m 01:52:57 19.79 Km\h Look 965 SR
18/08/2015 Show to everybody 18_08_2015 valle rossa - casazza - s.rocco 51.26 Km 573 m 02:02:24 25.13 Km\h Look 965 SR
17/08/2015 Show to everybody 17_08_2015 cenate - sovere - clusone 73.3 Km 578 m 02:37:28 27.93 Km\h Look 965 SR
16/08/2015 Show to everybody 16_08_2015 colle gallo 24.33 Km 513 m 01:05:11 22.39 Km\h Look 965 SR
12/08/2015 Show to everybody 12_08_2015 valbondione 76.4 Km 624 m 02:47:33 27.36 Km\h Look 965 SR
10/08/2015 Show to everybody 10_08_2015 selvino 43.55 Km 720 m 01:53:32 23.02 Km\h Look 965 SR
09/08/2015 Show to everybody 09_08_2015 rovetta 48.5 Km 421 m 01:47:05 27.18 Km\h Look 965 SR
08/08/2015 Show to everybody 08_08_2015 san gallo - colle di zambla 94.15 Km 1262 m 04:01:01 23.44 Km\h Look 965 SR
07/08/2015 Show to everybody 07_08_2015 clusone - sovere - valle rossa 57.48 Km 655 m 02:17:06 25.15 Km\h Look 965 SR
05/08/2015 Show to everybody 05_08_2015 valbondione 75.07 Km 555 m 02:41:12 27.94 Km\h Look 965 SR
03/08/2015 Show to everybody 03_08_2015 clusone - songavazzo 54.12 Km 523 m 02:06:28 25.67 Km\h Look 965 SR
29/07/2015 Show to everybody 29_07_2015 villa d\`ogna - clusone (senda) 41.8 Km 338 m 01:31:33 27.39 Km\h Look 965 SR
27/07/2015 Show to everybody 27_07_2015 ganda - selvino 38.37 Km 804 m 01:49:26 21.04 Km\h Look 965 SR
25/07/2015 Show to everybody 25_07_2015 fondo veloce 69.34 Km 302 m 02:29:13 27.88 Km\h Look 965 SR
24/07/2015 Show to everybody 24_07_2015 zogno - selvino 69.49 Km 860 m 02:50:15 24.49 Km\h Look 965 SR
22/07/2015 Show to everybody 22_07_2015 passo della presolana 70.22 Km 1032 m 02:58:47 23.57 Km\h Look 965 SR
20/07/2015 Show to everybody 20_07_2015 selvino 42.88 Km 711 m 01:56:55 22.01 Km\h Look 965 SR
18/07/2015 Show to everybody 18_07_2015 lizzola 86.1 Km 914 m 03:21:32 25.63 Km\h Look 965 SR
17/07/2015 Show to everybody 17_07_2015 ardesio - clusone - rovetta 64.01 Km 609 m 02:31:07 25.41 Km\h Look 965 SR
14/07/2015 Show to everybody 14_07_2015 sarnico - solto collina - clusone 95.73 Km 734 m 03:31:11 27.2 Km\h Look 965 SR
11/07/2015 Show to everybody 11_07_2015 valbondione 81.18 Km 593 m 03:01:14 26.88 Km\h Look 965 SR
09/07/2015 Show to everybody 09_07_2015 zogno - selvino 73.37 Km 890 m 02:54:02 25.29 Km\h Look 965 SR
06/07/2015 Show to everybody 06_07_2015 selvino 43.33 Km 690 m 02:06:29 20.56 Km\h Look 965 SR
04/07/2015 Show to everybody 04_07_2015 valbondione 76.25 Km 630 m 02:43:07 28.05 Km\h Look 965 SR
03/07/2015 Show to everybody 03_07_2015 gromo 55.3 Km 321 m 01:59:11 27.84 Km\h Look 965 SR
30/06/2015 Show to everybody 30_06_2015 gandellino 55.67 Km 372 m 01:57:46 28.36 Km\h Look 965 SR
29/06/2015 Show to everybody 29_06_2015 colle di zambla 52.44 Km 927 m 02:17:52 22.82 Km\h Look 965 SR
27/06/2015 Show to everybody 27_06_2015 sarnico 74.65 Km 418 m 02:44:01 27.31 Km\h Look 965 SR
26/06/2015 Show to everybody 26_06_2015 clusone - sovere - valle rossa 58.47 Km 697 m 02:11:14 26.73 Km\h Look 965 SR
24/06/2015 Show to everybody 24_06_2015 s.antonio abbandonato 80.75 Km 1058 m 03:25:40 23.56 Km\h Look 965 SR
21/06/2015 Show to everybody 21_06_2015 zone 137.07 Km 1068 m 05:13:49 26.21 Km\h Look 965 SR
19/06/2015 Show to everybody 19_06_2015 valbondione 75.26 Km 577 m 02:43:13 27.67 Km\h Cannondale Supersix
18/06/2015 Show to everybody 18_06_2015 selvino 37.17 Km 711 m 01:41:57 21.87 Km\h Cannondale Supersix
17/06/2015 Show to everybody 17_06_2015 colle gallo 30.97 Km 515 m 01:29:26 20.78 Km\h Cannondale Supersix
16/06/2015 Show to everybody 16_06_2015 uscita fondo veloce 56.49 Km 374 m 02:05:07 27.09 Km\h Cannondale Supersix
13/06/2015 Show to everybody 13_06_2015 monte croce 22.91 Km 643 m 01:20:57 16.98 Km\h Look 965 SR
11/06/2015 Show to everybody 11_06_2015 uscita medio fondo 32.96 Km 215 m 01:10:12 28.17 Km\h Look 965 SR
10/06/2015 Show to everybody 10_06_2015 valle rossa - sovere - clusone 58.36 Km 671 m 02:14:10 26.1 Km\h Look 965 SR
09/06/2015 Show to everybody 09_06_2015 ganda - selvino 39.64 Km 896 m 01:59:46 19.86 Km\h Look 965 SR
08/06/2015 Show to everybody 08_06_2015 grumello del monte 57 Km 206 m 01:59:43 28.57 Km\h Look 965 SR
07/06/2015 Show to everybody 07_06_2015 ardesio 47.57 Km 420 m 01:22:22 34.65 Km\h Look 965 SR
29/05/2015 Show to everybody 29_05_2015 lenna 102.07 Km 602 m 03:37:29 28.16 Km\h Look 965 SR
27/05/2015 Show to everybody 27_05_2015 sarnico - gandosso 98.35 Km 888 m 03:53:21 25.29 Km\h Cannondale Supersix
26/05/2015 Show to everybody 2015-05-26-14-12-13 23.68 Km 463 m 01:04:07 22.16 Km\h Look 965 SR
25/05/2015 Show to everybody 25_05_2015 fondo veloce 70.01 Km 308 m 02:29:22 28.12 Km\h Cannondale Supersix
24/05/2015 Show to everybody 24_05_2015 selvino 45.19 Km 756 m 01:57:58 22.99 Km\h Cannondale Supersix
22/05/2015 Show to everybody 22_05_2015 ardesio - piario 68.97 Km 425 m 02:25:43 28.4 Km\h Cannondale Supersix
19/05/2015 Show to everybody 19_05_2015 colle gallo 26.7 Km 468 m 01:07:22 23.78 Km\h Look 965 SR
18/05/2015 Show to everybody 18_05_2015 clusone - sovere - valle rossa 58.57 Km 699 m 02:18:20 25.4 Km\h Look 965 SR
17/05/2015 Show to everybody 17_05_2015 sarnico 84.91 Km 453 m 02:59:28 28.39 Km\h Look 965 SR
14/05/2015 Show to everybody 14_05_2015 spiazzi di gromo 68.03 Km 900 m 02:44:26 24.82 Km\h Look 965 SR
12/05/2015 Show to everybody 12_05_2015 cerete alto - songavazzo 57.41 Km 604 m 02:06:09 27.3 Km\h Look 965 SR
09/05/2015 Show to everybody 09_05_2015 dossena - zambla 91.76 Km 1328 m 03:50:42 23.87 Km\h Look 965 SR
06/05/2015 Show to everybody 06_05_2015 fondo veloce 48.82 Km 352 m 01:46:28 27.51 Km\h Cannondale Supersix
05/05/2015 Show to everybody 05_05_2015 valbundiù 85.46 Km 816 m 03:07:27 27.35 Km\h Cannondale Supersix
03/05/2015 Show to everybody 03_05_2015 valle rossa - colle gallo 25.94 Km 646 m 01:20:33 19.32 Km\h Cannondale Flash 1
02/05/2015 Show to everybody 02_05_2015 sgambada 30.25 Km 178 m 01:06:50 27.16 Km\h Look 965 SR
30/04/2015 Show to everybody 30_04_2015 clusù - loer - sarnec 97.81 Km 751 m 03:27:28 28.29 Km\h Cannondale Supersix
29/04/2015 Show to everybody 29_04_2015 selvino 43.13 Km 748 m 01:53:54 22.72 Km\h Cannondale Supersix
28/04/2015 Show to everybody 28_04_2015 clusone - sovere - valle rossa 58.68 Km 702 m 02:14:39 26.15 Km\h Cannondale Supersix
24/04/2015 Show to everybody 24_04_2015 sgambata 48.37 Km 360 m 01:50:34 26.25 Km\h Cannondale Supersix
23/04/2015 Show to everybody 23_04_2015 resegone 95.6 Km 1194 m 04:02:12 23.68 Km\h Cannondale Supersix
22/04/2015 Show to everybody 22_04_2015 zogno - selvino 75.89 Km 931 m 03:04:59 24.62 Km\h Cannondale Supersix
20/04/2015 Show to everybody 20_04_2015 selvino 43.86 Km 765 m 01:54:32 22.98 Km\h Look 965 SR
18/04/2015 Show to everybody 18_04_2015 rovetta 63.32 Km 490 m 02:15:15 28.09 Km\h Look 965 SR
15/04/2015 Show to everybody 15_04_2015 sgambatina 37.62 Km 198 m 01:23:19 27.09 Km\h Look 965 SR
14/04/2015 Show to everybody 14_04_2015 polaveno 113.22 Km 961 m 04:20:58 26.03 Km\h Look 965 SR
10/04/2015 Show to everybody 10_04_2015 clusone - sovere - valle rossa 56.85 Km 703 m 02:16:07 25.06 Km\h Look 965 SR
09/04/2015 Show to everybody 09_04_2015 valgoglio - bani 71.26 Km 796 m 02:45:15 25.87 Km\h Look 965 SR
07/04/2015 Show to everybody 07_04_2015 tour del colle dei pasta 55.06 Km 512 m 02:08:07 25.79 Km\h Look 965 SR
04/04/2015 Show to everybody 04_04_2015 ardesio - piario 50.44 Km 302 m 01:42:22 29.57 Km\h Look 965 SR
03/04/2015 Show to everybody 03_04_2015 sarnico - lovere - clusone 101.1 Km 688 m 03:42:55 27.21 Km\h Cannondale Supersix
30/03/2015 Show to everybody 30_03_2015 selvino - ganda 41.46 Km 882 m 02:05:44 19.78 Km\h Cannondale Supersix
29/03/2015 Show to everybody 29_03_2015 clusone - villa d\`ogna 48.28 Km 364 m 01:48:27 26.71 Km\h Cannondale Supersix
28/03/2015 Show to everybody 28_03_2015 grumello del monte 66.92 Km 275 m 02:27:47 27.17 Km\h Cannondale Supersix
27/03/2015 Show to everybody 27_03_2015 villa d\`ogna - clusone senda 57.45 Km 431 m 02:05:05 27.56 Km\h Cannondale Supersix
23/03/2015 Show to everybody 23_03_2015 selvino 40.3 Km 756 m 01:50:21 21.91 Km\h Cannondale Supersix
21/03/2015 Show to everybody 21_03_2015 clusone 42.64 Km 339 m 01:36:46 26.44 Km\h Cannondale Supersix
19/03/2015 Show to everybody 19_03_2015 berbenno - selvino 103.31 Km 1376 m 04:30:10 22.94 Km\h Cannondale Supersix
13/03/2015 Show to everybody 13_03_2015 valbondione 75.55 Km 617 m 02:53:00 26.2 Km\h Cannondale Supersix
12/03/2015 Show to everybody 12_03_2015 rotta catena 29.89 Km 183 m 01:12:59 24.58 Km\h Cannondale Supersix
11/03/2015 Show to everybody 11_03_2015 sgambata 57.37 Km 318 m 02:18:38 24.83 Km\h Cannondale Supersix
10/03/2015 Show to everybody 10_03_2015 clusone - sovere - valle rossa 69.71 Km 917 m 03:04:04 22.72 Km\h Cannondale Supersix
09/03/2015 Show to everybody 09_03_2015 chiuduno - torre de roveri - colle dei pasta 62.14 Km 432 m 02:31:32 24.6 Km\h Cannondale Supersix
07/03/2015 Show to everybody 07_03_2015 rovetta 49.43 Km 420 m 01:50:16 26.9 Km\h Cannondale Supersix
05/03/2015 Show to everybody 05_03_2015 selvino 44.48 Km 773 m 02:09:46 20.57 Km\h Cannondale Supersix
28/02/2015 Show to everybody 28_02_2015 ardesio - sovere - colle gallo 75.87 Km 926 m 03:11:36 23.76 Km\h Cannondale Supersix
27/02/2015 Show to everybody 27_02_2015 gandosso 67.21 Km 609 m 02:45:18 24.4 Km\h Cannondale Supersix
25/02/2015 Show to everybody 25_02_2015 ganda - selvino 39.83 Km 874 m 02:22:03 16.82 Km\h Cannondale Flash 1
23/02/2015 Show to everybody 23_02_2015 selvino - passo di zambla 72.78 Km 1466 m 03:50:11 18.97 Km\h Cannondale Flash 1
19/02/2015 Show to everybody 19_02_2015 colle gallo 29.1 Km 508 m 01:22:32 21.16 Km\h Cannondale Supersix
17/02/2015 Show to everybody 17_02_2015 valbondione 74.67 Km 583 m 02:50:42 26.25 Km\h Cannondale Supersix
13/02/2015 Show to everybody 13_02_2015 bergamo - trescore 69.21 Km 303 m 02:47:57 24.73 Km\h Cannondale Supersix
12/02/2015 Show to everybody 12_02_2015 villa d\`ogna - clusone (senda) 57.22 Km 465 m 02:23:44 23.88 Km\h Cannondale Supersix
10/02/2015 Show to everybody 10_02_2015 grumello del monte 69.18 Km 312 m 02:43:54 25.33 Km\h Cannondale Supersix
09/02/2015 Show to everybody 09_02_2015 pista ciclabile 25.2 Km 253 m 01:17:31 19.51 Km\h Cannondale Flash 1
04/02/2015 Show to everybody 04_02_2015 colle gallo 22.15 Km 471 m 01:02:13 21.36 Km\h Cannondale Supersix
02/02/2015 Show to everybody 02_02_2015 berbenno 81.72 Km 804 m 03:24:17 24 Km\h Cannondale Supersix
31/01/2015 Show to everybody 31_01_2015 valle rossa 17.8 Km 349 m 00:53:37 19.91 Km\h Cannondale Flash 1
28/01/2015 Show to everybody 28_01_2015 chiuduno - cenate colle dei pasta 59.87 Km 378 m 02:26:48 24.47 Km\h Cannondale Supersix
25/01/2015 Show to everybody 25_01_2015 rovetta 53.59 Km 423 m 02:04:07 25.9 Km\h Cannondale Supersix
23/01/2015 Show to everybody 23_01_2015 palazzolo - capriolo 78.14 Km 379 m 02:59:26 26.13 Km\h Cannondale Supersix
19/01/2015 Show to everybody 19_01_2015 bagnatica - s.rocco 49.97 Km 353 m 02:04:27 24.09 Km\h Cannondale Supersix
18/01/2015 Show to everybody 18_01_2015 ganda - selvino 37.16 Km 860 m 02:09:09 17.26 Km\h Cannondale Flash 1
12/01/2015 Show to everybody 12_01_2015 gromo 55.31 Km 362 m 02:09:58 25.54 Km\h Cannondale Supersix
09/01/2015 Show to everybody 09_01_2015 trescore - sovere - songavazzo 85.41 Km 643 m 03:21:41 25.41 Km\h Cannondale Supersix
07/01/2015 Show to everybody 07_01_2015 lonno da alzano l 28.57 Km 518 m 01:34:10 18.2 Km\h Cannondale Flash 1
06/01/2015 Show to everybody 06_01_2015 valle rossa - leffe - casnigo 23.86 Km 355 m 01:12:51 19.65 Km\h Cannondale Flash 1
05/01/2015 Show to everybody 05_01_2015 val vertova 19.43 Km 205 m 00:59:02 19.75 Km\h Cannondale Flash 1
04/01/2015 Show to everybody 04_01_2015 sarnico 80.16 Km 401 m 03:12:10 25.03 Km\h Cannondale Supersix
24/11/2014 Show to everybody 24_11_2014 valbondione 74.68 Km 585 m 02:45:22 27.1 Km\h Cannondale Supersix
21/11/2014 Show to everybody 21_11_2014 ardesio - piario 44.84 Km 286 m 01:40:08 26.87 Km\h Cannondale Supersix
20/11/2014 Show to everybody 20_11_2014 fondo 84.63 Km 518 m 03:06:44 27.19 Km\h Cannondale Supersix
08/11/2014 Show to everybody 08_11_2014 sgambatina 30.36 Km 160 m 01:06:41 27.32 Km\h Cannondale Supersix
03/11/2014 Show to everybody 03_11_2014 villa d\`ogna 39.54 Km 270 m 01:30:24 26.24 Km\h Cannondale Supersix
30/10/2014 Show to everybody 30_10_2014 sgambatina 48.1 Km 236 m 01:51:04 25.99 Km\h Cannondale Supersix
29/10/2014 Show to everybody 2014-10-29 clusone 42.06 Km 326 m 01:58:28 21.3 Km\h Cannondale Flash 1
29/10/2014 Show to everybody 2014-10-29 clusone 42.06 Km 326 m 01:58:28 21.3 Km\h Cannondale Supersix
28/10/2014 Show to everybody 28_10_2014 zone 130.74 Km 1082 m 05:00:43 26.09 Km\h Cannondale Supersix
27/10/2014 Show to everybody 27_10_2014 valbondione 77.72 Km 681 m 03:02:23 25.57 Km\h Cannondale Supersix
24/10/2014 Show to everybody 24_10_2014 ardesio 66.76 Km 453 m 02:25:58 27.44 Km\h Cannondale Supersix
23/10/2014 Show to everybody 23_10_2014 uscita di fondo 62.04 Km 266 m 02:18:42 26.84 Km\h Cannondale Supersix
22/10/2014 Show to everybody 22_10_2014 selvino 43.81 Km 739 m 02:03:47 21.24 Km\h Cannondale Supersix
21/10/2014 Show to everybody 21_10_2014 uscita di fondo 73.02 Km 282 m 02:37:53 27.75 Km\h Cannondale Supersix
20/10/2014 Show to everybody 20_10_2014 valbondione 77.1 Km 636 m 02:48:57 27.38 Km\h Cannondale Supersix
18/10/2014 Show to everybody 18_10_2014 clusone - sovere - valle rossa 56.79 Km 651 m 02:11:46 25.86 Km\h Cannondale Supersix
17/10/2014 Show to everybody 17_10_2014 selvino 40.23 Km 697 m 01:49:01 22.14 Km\h Cannondale Supersix
15/10/2014 Show to everybody 15_10_2014 rovetta - songavazzo 77.52 Km 653 m 02:50:55 27.21 Km\h Cannondale Supersix
14/10/2014 Show to everybody 14_10_2014 colle gallo 29.97 Km 490 m 01:14:42 24.07 Km\h Cannondale Supersix
03/10/2014 Show to everybody 03_10_2014 rovetta - villa d\`ogna 52.61 Km 395 m 01:55:44 27.28 Km\h Cannondale Supersix
02/10/2014 Show to everybody 02_10_2014 foresto sparso - s.rocco 77.59 Km 737 m 03:02:58 25.45 Km\h Cannondale Supersix
30/09/2014 Show to everybody 2014-09-30 valle rossa - colle sfanino 25.43 Km 517 m 01:16:02 20.06 Km\h Cannondale Flash 1
27/09/2014 Show to everybody 27_09_2014 sarnico - lovere - clusone 104.05 Km 706 m 03:46:33 27.56 Km\h Look 965 SR
24/09/2014 Show to everybody 24_09_2014 zambla - selvino 71.75 Km 1443 m 03:18:08 21.73 Km\h Look 965 SR
23/09/2014 Show to everybody 23_09_2014 sarnico 87.05 Km 416 m 03:07:57 27.79 Km\h Look 965 SR
22/09/2014 Show to everybody 22_09_2014 valbondione 75.51 Km 574 m 02:47:46 27 Km\h Look 965 SR
21/09/2014 Show to everybody 21_09_2014 clusone - lovere - solto collina - valle rossa 74.15 Km 1005 m 02:59:03 24.85 Km\h Look 965 SR
20/09/2014 Show to everybody 20_09_2014 colle dei pasta - ss. trinità (casnigo) 74.18 Km 690 m 02:54:19 25.53 Km\h Look 965 SR
18/09/2014 Show to everybody 2014-09-18 valle rossa 26.03 Km 377 m 01:09:24 22.5 Km\h Cannondale Flash 1
16/09/2014 Show to everybody 16_09_2014 bergamo - chiuduno 60.1 Km 286 m 02:14:14 26.86 Km\h Look 965 SR
16/09/2014 Show to everybody bergamo - chiuduno 60.1 Km 286 m 02:14:14 26.86 Km\h Look 965 SR
15/09/2014 Show to everybody sgambatina 24.65 Km 134 m 01:11:57 20.55 Km\h Cannondale Flash 1
15/09/2014 Show to everybody sgambatina 36.81 Km 199 m 01:29:25 24.7 Km\h Look 965 SR
14/09/2014 Show to everybody colli di s_fermo 94.01 Km 1351 m 04:01:17 23.38 Km\h Look 965 SR
13/09/2014 Show to everybody s.rocco - valle rossa 25.4 Km 433 m 01:12:07 21.13 Km\h Cannondale Flash 1
11/09/2014 Show to everybody villa d\\\`ogna - clusone 41.63 Km 343 m 01:35:21 26.19 Km\h Look 965 SR
09/09/2014 Show to everybody selvino - orezzo 46.74 Km 845 m 02:07:55 21.92 Km\h Look 965 SR
08/09/2014 Show to everybody valbondione 73.55 Km 541 m 02:32:00 29.03 Km\h Look 965 SR
06/09/2014 Show to everybody albano s.a. - sovere - clusone 85.2 Km 558 m 02:59:50 28.43 Km\h Look 965 SR
04/09/2014 Show to everybody bagnatica - s.rocco 51.65 Km 338 m 01:59:40 25.9 Km\h Look 965 SR
03/09/2014 Show to everybody colle gallo 26.67 Km 428 m 01:15:41 21.14 Km\h Cannondale Flash 1
02/09/2014 Show to everybody valzurio 58.93 Km 890 m 02:54:17 20.29 Km\h Cannondale Flash 1
01/09/2014 Show to everybody ganda_selvino 38.3 Km 824 m 02:03:57 18.54 Km\h Cannondale Flash 1
29/08/2014 Show to everybody sgambatina 46.71 Km 208 m 01:45:28 26.57 Km\h Cannondale Supersix
28/08/2014 Show to everybody roncola 92.5 Km 1110 m 03:39:01 25.34 Km\h Cannondale Supersix
27/08/2014 Show to everybody passo della presolana 68.85 Km 1004 m 02:46:49 24.76 Km\h Cannondale Supersix
24/08/2014 Show to everybody clusone - sovere - colle gallo 65.4 Km 791 m 02:25:07 27.04 Km\h Cannondale Supersix
22/08/2014 Show to everybody valbondione 81.71 Km 635 m 03:01:06 27.07 Km\h Cannondale Supersix
20/08/2014 Show to everybody casnigo - s.rocco - colle gallo 48.51 Km 852 m 02:17:42 21.14 Km\h Cannondale Flash 1
18/08/2014 Show to everybody selvino - zogno - bergamo 82.31 Km 1109 m 03:21:17 24.53 Km\h Cannondale Supersix
17/08/2014 Show to everybody rovetta - sovere - valle rossa 72.28 Km 764 m 02:46:33 26.04 Km\h Cannondale Supersix
16/08/2014 Show to everybody grumello del monte 68.79 Km 280 m 02:23:02 28.85 Km\h Cannondale Supersix
11/08/2014 Show to everybody selvino 43.93 Km 711 m 01:58:39 22.21 Km\h Cannondale Supersix
10/08/2014 Show to everybody sarnico - lovere - clusone 98.68 Km 666 m 03:25:22 28.83 Km\h Cannondale Supersix
09/08/2014 Show to everybody ganda - selvino 40.74 Km 836 m 02:06:26 19.33 Km\h Cannondale Flash 1
08/08/2014 Show to everybody selvino 46.11 Km 724 m 01:55:39 23.92 Km\h Look 965 SR
05/08/2014 Show to everybody clusone - sovere - valle rossa 56.85 Km 670 m 02:06:32 26.96 Km\h Look 965 SR
04/08/2014 Show to everybody valbondione 75.31 Km 587 m 02:44:14 27.51 Km\h Look 965 SR
29/07/2014 Show to everybody villa d\\\`ogna - clusone 41.24 Km 341 m 01:33:46 26.39 Km\h Look 965 SR
28/07/2014 Show to everybody clusone - lovere - sarnico 100.17 Km 957 m 03:41:48 27.1 Km\h Look 965 SR
24/07/2014 Show to everybody ganda - selvino 38.5 Km 838 m 01:55:54 19.93 Km\h Cannondale Flash 1
23/07/2014 Show to everybody altino - colle gallo 17.67 Km 526 m 00:58:40 18.07 Km\h Cannondale Flash 1
22/07/2014 Show to everybody sarnico - sovere - clusone 113.8 Km 952 m 04:20:25 26.22 Km\h Look 965 SR
20/07/2014 Show to everybody lizzola 89.22 Km 943 m 03:33:43 25.05 Km\h Look 965 SR
19/07/2014 Show to everybody gandellino 59.65 Km 438 m 02:11:45 27.17 Km\h Look 965 SR
17/07/2014 Show to everybody clusone - lovere - iseo 112.36 Km 677 m 04:05:48 27.43 Km\h Look 965 SR
15/07/2014 Show to everybody s.fermo - sovere - clusone 108.22 Km 1429 m 04:33:18 23.76 Km\h Look 965 SR
14/07/2014 Show to everybody clusone - sovere - valle rossa 58.99 Km 684 m 02:11:42 26.87 Km\h Cannondale Supersix
13/07/2014 Show to everybody rovetta - villa d\`ogna 53.73 Km 393 m 01:53:46 28.34 Km\h Cannondale Supersix
11/07/2014 Show to everybody clusone - villa d\`ogna 43.89 Km 354 m 01:39:01 26.59 Km\h Cannondale Supersix
09/07/2014 Show to everybody zone 151.32 Km 1009 m 05:48:05 26.08 Km\h Cannondale Supersix
03/07/2014 Show to everybody selvino 44.53 Km 740 m 01:54:24 23.36 Km\h Look 965 SR
02/07/2014 Show to everybody villa d\`ogna - fino del monte 53.6 Km 546 m 01:59:09 26.99 Km\h Look 965 SR
30/06/2014 Show to everybody grumello del monte 79.76 Km 330 m 02:50:46 28.02 Km\h Look 965 SR
27/06/2014 Show to everybody clusone - monasterolo - albano s a 82.02 Km 595 m 02:56:47 27.84 Km\h Look 965 SR
23/06/2014 Show to everybody villa d\`ogna - piario 45.94 Km 309 m 01:42:44 26.83 Km\h Look 965 SR
21/06/2014 Show to everybody presolana - boario - valle rossa 99.99 Km 1539 m 04:10:24 23.96 Km\h Look 965 SR
20/06/2014 Show to everybody cenate - monasterolo - valle rossa 57.84 Km 596 m 02:18:12 25.11 Km\h Look 965 SR
19/06/2014 Show to everybody selvino 51.33 Km 765 m 02:09:33 23.77 Km\h Look 965 SR
16/06/2014 Show to everybody clusone 40.99 Km 343 m 01:27:25 28.14 Km\h Look 965 SR
14/06/2014 Show to everybody valle rossa - colle gallo 43.21 Km 792 m 01:48:52 23.81 Km\h Look 965 SR
12/06/2014 Show to everybody lungo medio 47.19 Km 267 m 01:43:12 27.44 Km\h Look 965 SR
10/06/2014 Show to everybody tour_lago_d\\\`iseo 110.14 Km 703 m 04:07:37 26.69 Km\h Look 965 SR
09/06/2014 Show to everybody valbondione 79.01 Km 689 m 03:02:36 25.96 Km\h Look 965 SR
06/06/2014 Show to everybody lungo 62.24 Km 292 m 02:23:56 25.95 Km\h Cannondale Supersix
05/06/2014 Show to everybody selvino x 2 61.58 Km 1263 m 02:55:45 21.02 Km\h Cannondale Supersix
04/06/2014 Show to everybody colle - gallo 29.13 Km 476 m 01:13:32 23.77 Km\h Cannondale Supersix
03/06/2014 Show to everybody clusone_lovere_sarnico 94.14 Km 675 m 03:22:55 27.84 Km\h Cannondale Supersix
30/05/2014 Show to everybody ardesio 48.49 Km 416 m 01:48:43 26.76 Km\h Cannondale Supersix
28/05/2014 Show to everybody sarnico 83.36 Km 395 m 03:05:33 26.96 Km\h Cannondale Supersix
26/05/2014 Show to everybody ganda - selvino 39.01 Km 852 m 01:52:10 20.87 Km\h Cannondale Supersix
25/05/2014 Show to everybody giro d\\\`italia 73.77 Km 856 m 02:53:36 25.5 Km\h Cannondale Supersix
23/05/2014 Show to everybody fondo medio 54.17 Km 271 m 01:58:53 27.34 Km\h Cannondale Supersix
21/05/2014 Show to everybody villa d\\\`ogna - piario 46.26 Km 296 m 01:35:49 28.97 Km\h Cannondale Supersix
16/05/2014 Show to everybody zogno - selvino 70.59 Km 834 m 02:51:05 24.76 Km\h Cannondale Supersix
15/05/2014 Show to everybody bani 82.03 Km 1091 m 03:32:36 23.15 Km\h Look 965 SR
13/05/2014 Show to everybody Mezzo selvino 36.79 Km 527 m 01:37:06 22.73 Km\h Cannondale Supersix
10/05/2014 Show to everybody Parzanica 112.17 Km 1011 m 04:39:54 24.05 Km\h Look 965 SR
09/05/2014 Show to everybody Lungo - medio 62.58 Km 264 m 02:21:09 26.6 Km\h Cannondale Supersix
08/05/2014 Show to everybody selvino 46.84 Km 765 m 02:00:39 23.3 Km\h Cannondale Supersix
06/05/2014 Show to everybody ganda - selvino 46.29 Km 870 m 02:08:19 21.64 Km\h Cannondale Supersix
04/05/2014 Show to everybody iseo - lovere - clusone 115.84 Km 950 m 04:27:36 25.97 Km\h Cannondale Supersix
03/05/2014 Show to everybody sgambatina 37.21 Km 226 m 01:20:42 27.67 Km\h Cannondale Supersix
29/04/2014 Show to everybody grumello del monte - colle dei pasta 68.51 Km 389 m 02:31:34 27.12 Km\h Cannondale Supersix
26/04/2014 Show to everybody gromo 53.48 Km 426 m 01:57:17 27.36 Km\h Cannondale Supersix
23/04/2014 Show to everybody selvino 43.71 Km 742 m 01:55:18 22.75 Km\h Cannondale Supersix
18/04/2014 Show to everybody clusone 46.79 Km 379 m 02:01:33 23.1 Km\h Cannondale Flash 1
17/04/2014 Show to everybody berbenno 88.79 Km 937 m 03:34:43 24.81 Km\h Cannondale Supersix
16/04/2014 Show to everybody selvino 40.3 Km 698 m 01:43:28 23.37 Km\h Cannondale Supersix
13/04/2014 Show to everybody Franciacorta 86.66 Km 599 m 03:16:54 26.41 Km\h Cannondale Supersix
12/04/2014 Show to everybody sarnico 85.32 Km 438 m 03:08:02 27.23 Km\h Cannondale Supersix
09/04/2014 Show to everybody ardesio 46.34 Km 366 m 01:42:19 27.18 Km\h Cannondale Supersix
05/04/2014 Show to everybody lungo - medio 56.64 Km 337 m 02:05:12 27.15 Km\h Cannondale Supersix
04/04/2014 Show to everybody valbondione 75.44 Km 614 m 02:38:50 28.5 Km\h Cannondale Supersix
02/04/2014 Show to everybody songavazzo - cerete basso - villa d\\\`ogna 60.56 Km 575 m 02:13:38 27.19 Km\h Cannondale Supersix
01/04/2014 Show to everybody selvino 38.21 Km 709 m 01:52:51 20.31 Km\h Cannondale Flash 1
31/03/2014 Show to everybody lavoro in acido lattico 50.85 Km 305 m 01:48:28 28.13 Km\h Look 965 SR
29/03/2014 Show to everybody sarnico - solto collina - sovere - clusone 94.16 Km 783 m 03:29:30 26.97 Km\h Look 965 SR
28/03/2014 Show to everybody clusone - sovere - valle rossa 59.41 Km 753 m 02:17:59 25.83 Km\h Look 965 SR
27/03/2014 Show to everybody selvino 34.96 Km 679 m 01:32:48 22.6 Km\h Look 965 SR
24/03/2014 Show to everybody spiazzi di gromo 66.98 Km 930 m 02:49:32 23.71 Km\h Look 965 SR
20/03/2014 Show to everybody recupero 29.38 Km 191 m 01:04:51 27.18 Km\h Look 965 SR
19/03/2014 Show to everybody uscita di scarico 45.77 Km 326 m 01:53:26 24.21 Km\h Look 965 SR
18/03/2014 Show to everybody Passo della Presolana 67.81 Km 1044 m 02:45:23 24.6 Km\h Look 965 SR
17/03/2014 Show to everybody valle rossa - colle gallo 34.57 Km 741 m 01:41:17 20.48 Km\h Cannondale Flash 1
14/03/2014 Show to everybody bagnatica - s_rocco 58.65 Km 455 m 02:14:05 26.25 Km\h Look 965 SR
13/03/2014 Show to everybody clusone - sovere - valle rossa 62.97 Km 746 m 02:29:55 25.2 Km\h Look 965 SR
12/03/2014 Show to everybody ardesio 47.4 Km 344 m 01:44:19 27.26 Km\h Look 965 SR
11/03/2014 Show to everybody valle rossa x2 volte 24.69 Km 497 m 01:06:46 22.18 Km\h Look 965 SR
09/03/2014 Show to everybody gandellino 61.78 Km 464 m 02:12:35 27.96 Km\h Look 965 SR
08/03/2014 Show to everybody defaticamento 47.59 Km 344 m 01:55:12 24.79 Km\h Look 965 SR
07/03/2014 Show to everybody villa d\\\`ogna - (senda) - rovetta 53.53 Km 455 m 01:58:29 27.11 Km\h Look 965 SR
06/03/2014 Show to everybody selvino 43.71 Km 747 m 01:55:40 22.68 Km\h Look 965 SR
04/03/2014 Show to everybody palosco - sovere - clusone 106.05 Km 627 m 03:51:06 27.53 Km\h Cannondale Supersix
25/02/2014 Show to everybody selvino 42.27 Km 720 m 01:53:27 22.36 Km\h Cannondale Supersix
22/02/2014 Show to everybody rovetta - villa d\\\`ogna 48.11 Km 409 m 01:52:31 25.66 Km\h Cannondale Supersix
21/02/2014 Show to everybody gandosso 81.03 Km 602 m 03:10:19 25.54 Km\h Cannondale Supersix
20/02/2014 Show to everybody cerete - songavazzo 60.8 Km 583 m 02:16:57 26.64 Km\h Cannondale Supersix
18/02/2014 Show to everybody valbondione 97.54 Km 681 m 03:36:15 27.06 Km\h Cannondale Supersix
15/02/2014 Show to everybody colle gallo 20.33 Km 452 m 01:01:12 19.93 Km\h Cannondale Flash 1
12/02/2014 Show to everybody rovetta - sovere - valle rossa 59.91 Km 737 m 02:23:44 25.01 Km\h Cannondale Supersix
29/01/2014 Show to everybody valle rossa - colle gallo 26.47 Km 664 m 01:28:13 18.01 Km\h Cannondale Flash 1
27/01/2014 Show to everybody sarnico 84.13 Km 436 m 03:13:24 26.1 Km\h Cannondale Supersix
26/01/2014 Show to everybody villa d\`ogna - piario 54.89 Km 352 m 02:07:06 25.91 Km\h Cannondale Supersix
25/01/2014 Show to everybody lungo - lento 47.98 Km 277 m 01:54:49 25.07 Km\h Cannondale Supersix
22/01/2014 Show to everybody medio - lungo 62.97 Km 262 m 02:30:30 25.1 Km\h Cannondale Supersix
15/01/2014 Show to everybody san vigilio 59.04 Km 506 m 02:34:46 22.89 Km\h Cannondale Supersix
12/01/2014 Show to everybody trescore - sovere - songavazzo 78.9 Km 676 m 03:03:05 25.86 Km\h Cannondale Supersix
08/01/2014 Show to everybody clusone - sovere - valle rossa 56.75 Km 679 m 02:19:42 24.37 Km\h Cannondale Supersix
06/01/2014 Show to everybody colle gallo 29 Km 540 m 01:28:43 19.61 Km\h Cannondale Flash 1
30/12/2013 Show to everybody 30_12_2013 clusone 36.06 Km 279 m 01:23:42 25.85 Km\h Cannondale Supersix
29/12/2013 Show to everybody 2013-12-29 ganda - selvino 39.27 Km 862 m 02:12:39 17.76 Km\h Cannondale Flash 1
28/12/2013 Show to everybody 2013-12-28 valle rossa - s.rocco - albino 39.5 Km 592 m 01:56:36 20.33 Km\h Cannondale Flash 1
18/12/2013 Show to everybody bolgare - pontirolo nuovo 91.25 Km 340 m 03:32:08 25.81 Km\h Cannondale Supersix
14/12/2013 Show to everybody villa d\\\`ogna - clusone (senda) 43.83 Km 398 m 02:02:48 21.42 Km\h Cannondale Flash 1
13/12/2013 Show to everybody san vito 34.32 Km 594 m 01:48:59 18.89 Km\h Cannondale Flash 1
11/12/2013 Show to everybody allenamento dimagrante 32.39 Km 199 m 01:17:10 25.18 Km\h Cannondale Supersix
08/12/2013 Show to everybody Lungo in Franciacorta 98.17 Km 526 m 03:53:05 25.27 Km\h Cannondale Supersix
06/12/2013 Show to everybody allenamento medio lungo 40.16 Km 230 m 01:37:59 24.59 Km\h Cannondale Supersix
05/12/2013 Show to everybody allenamento medio lungo 63.71 Km 372 m 02:25:42 26.24 Km\h Cannondale Supersix
04/12/2013 Show to everybody valbondione 79.76 Km 617 m 03:11:37 24.97 Km\h Cannondale Supersix
02/12/2013 Show to everybody olera 36.58 Km 438 m 01:39:21 22.09 Km\h Cannondale Supersix
28/11/2013 Show to everybody sarnico - franciacorta 97.06 Km 482 m 03:50:59 25.21 Km\h Cannondale Supersix
25/11/2013 Show to everybody allenamento dimagrante 36.87 Km 225 m 01:25:22 25.92 Km\h Cannondale Supersix
23/11/2013 Show to everybody clusone 40.86 Km 326 m 01:33:24 26.25 Km\h Cannondale Supersix
20/11/2013 Show to everybody villa d\\\`ogna - piario 40.76 Km 267 m 01:31:58 26.6 Km\h Cannondale Supersix
13/11/2013 Show to everybody sarnico - lovere - iseo 131.15 Km 501 m 05:01:46 26.08 Km\h Cannondale Supersix
12/11/2013 Show to everybody s_rocco - valle rossa - s_rocco 31.66 Km 516 m 01:24:59 22.35 Km\h Cannondale Supersix
09/11/2013 Show to everybody allenamento al lungo 57.72 Km 284 m 02:24:52 23.91 Km\h Cannondale Supersix
08/11/2013 Show to everybody clusone - sovere - albano s alessandro 81.24 Km 508 m 02:53:31 28.09 Km\h Cannondale Supersix
06/11/2013 Show to everybody allenamento al medio 54.54 Km 224 m 02:03:49 26.43 Km\h Cannondale Supersix
02/11/2013 Show to everybody gandellino 57.47 Km 377 m 02:06:54 27.17 Km\h Cannondale Supersix
28/10/2013 Show to everybody clusone - lovere - sarnico 100.01 Km 633 m 03:44:52 26.68 Km\h Cannondale Supersix
19/10/2013 Show to everybody gromo - valgoglio 62.9 Km 774 m 02:30:46 25.03 Km\h Cannondale Supersix
17/10/2013 Show to everybody bergamo - villa d\\\`alme 58.49 Km 288 m 02:08:56 27.22 Km\h Cannondale Supersix
16/10/2013 Show to everybody passo di zambla 52.76 Km 954 m 02:23:31 22.06 Km\h Cannondale Supersix
15/10/2013 Show to everybody lungo in franciacorta 109.36 Km 460 m 04:03:51 26.91 Km\h Cannondale Supersix
11/10/2013 Show to everybody selvino 43.28 Km 740 m 01:55:06 22.56 Km\h Cannondale Supersix
06/10/2013 Show to everybody clusone - villa d\\\`ogna 48.97 Km 395 m 01:54:42 25.62 Km\h Look 965 SR
03/10/2013 Show to everybody monte di nese 52.81 Km 740 m 02:21:05 22.46 Km\h Look 965 SR
02/10/2013 Show to everybody fiumenero 67.93 Km 569 m 02:35:54 26.14 Km\h Look 965 SR
01/10/2013 Show to everybody selvino 43.82 Km 745 m 01:58:32 22.18 Km\h Look 965 SR
28/09/2013 Show to everybody clusone - sovere - valle rossa 56.52 Km 656 m 02:08:43 26.35 Km\h Look 965 SR
27/09/2013 Show to everybody selvino 46.51 Km 770 m 02:03:30 22.6 Km\h Look 965 SR
25/09/2013 Show to everybody valle rossa - colle gallo 39.04 Km 773 m 01:44:53 22.33 Km\h Look 965 SR
23/09/2013 Show to everybody valbondione 67.1 Km 501 m 02:26:45 27.44 Km\h Look 965 SR
22/09/2013 Show to everybody orezzo - selvino 38.88 Km 916 m 02:07:10 18.35 Km\h Cannondale Flash 1
21/09/2013 Show to everybody gandellino 60.6 Km 451 m 02:12:27 27.45 Km\h Look 965 SR
20/09/2013 Show to everybody clusone - iseo - sarnico 112.6 Km 696 m 04:11:23 26.88 Km\h Look 965 SR
18/09/2013 Show to everybody selvino 45.52 Km 752 m 02:03:22 22.14 Km\h Look 965 SR
16/09/2013 Show to everybody ardesio - clusone (senda) 50.94 Km 443 m 01:53:16 26.98 Km\h Look 965 SR
14/09/2013 Show to everybody Selvino 44.78 Km 766 m 01:57:55 22.79 Km\h Look 965 SR
13/09/2013 Show to everybody Clusone - Sovere - Valle Rossa 57.57 Km 673 m 02:14:55 25.6 Km\h Look 965 SR
11/09/2013 Show to everybody Selvino 45.57 Km 736 m 01:59:23 22.9 Km\h Look 965 SR
09/09/2013 Show to everybody Valbondione 76.5 Km 622 m 02:55:26 26.16 Km\h Look 965 SR
08/09/2013 Show to everybody Selvino - Serina - Bg 91.6 Km 1150 m 03:56:34 23.23 Km\h Cannondale Supersix
31/08/2013 Show to everybody Clusone - Vila d\`Ogna 84.34 Km 551 m 03:08:12 26.89 Km\h Cannondale Supersix
24/08/2013 Show to everybody Colle Gallo 30.26 Km 536 m 01:20:51 22.46 Km\h Cannondale Supersix
23/08/2013 Show to everybody Colle Gallo 52.63 Km 921 m 02:27:27 21.42 Km\h Cannondale Supersix
22/08/2013 Show to everybody Selvino 38.49 Km 653 m 01:43:00 22.42 Km\h Cannondale Supersix
21/08/2013 Show to everybody Selvino 36.94 Km 655 m 01:38:11 22.57 Km\h Cannondale Supersix
18/08/2013 Show to everybody Fino del Monte 57.39 Km 489 m 02:08:06 26.88 Km\h Cannondale Supersix
17/08/2013 Show to everybody Sarnico - Lovere - Clusone 97.43 Km 712 m 03:24:24 28.6 Km\h Look 965 SR
15/08/2013 Show to everybody Spiazzi di Gromo 67.47 Km 873 m 02:47:26 24.18 Km\h Cannondale Supersix
11/08/2013 Show to everybody Clusone - lovere - sarnico 89.62 Km 615 m 02:50:32 31.53 Km\h Cannondale Supersix
10/08/2013 Show to everybody Valbondione 79.68 Km 685 m 02:49:26 28.22 Km\h Cannondale Supersix
09/08/2013 Show to everybody Selvino 43.32 Km 687 m 01:56:54 22.23 Km\h Cannondale Supersix
05/08/2013 Show to everybody Allenamento 31.44 Km 262 m 01:16:18 24.72 Km\h Cannondale Supersix
03/08/2013 Show to everybody Clusone - piario - villa d\\\`ogna 53.73 Km 360 m 02:00:28 26.76 Km\h Cannondale Supersix
02/08/2013 Show to everybody piario - villa d\\\`ogna 39.78 Km 253 m 01:32:21 25.85 Km\h Cannondale Supersix
01/08/2013 Show to everybody valbondione 75.39 Km 582 m 02:49:11 26.74 Km\h Cannondale Supersix
31/07/2013 Show to everybody ardesio 49.86 Km 349 m 01:52:31 26.59 Km\h Cannondale Supersix
28/07/2013 Show to everybody riabilitazione 33.45 Km 190 m 01:15:39 26.53 Km\h Cannondale Supersix
26/07/2013 Show to everybody riabilitazione 18.8 Km 92 m 00:46:45 24.12 Km\h Cannondale Supersix
22/06/2013 Show to everybody ganda 25.2 Km 671 m 01:35:44 15.79 Km\h Cannondale Flash 1
19/06/2013 Show to everybody clusone - solto collina - sarnico 94.83 Km 762 m 03:32:53 26.73 Km\h Look 965 SR
18/06/2013 Show to everybody valcanale 94.87 Km 742 m 03:40:03 25.87 Km\h Look 965 SR
16/06/2013 Show to everybody colle di zambla 53.51 Km 922 m 02:21:56 22.62 Km\h Look 965 SR
15/06/2013 Show to everybody clusone 38.15 Km 265 m 01:40:27 22.78 Km\h Cannondale Flash 1
13/06/2013 Show to everybody passo della presolana 69.4 Km 1031 m 02:54:12 23.9 Km\h Look 965 SR
12/06/2013 Show to everybody clusone - sovere - valle rossa 81.91 Km 819 m 03:03:39 26.76 Km\h Look 965 SR
11/06/2013 Show to everybody Sarnico - Solto Collina - Valle Rossa 75.37 Km 597 m 02:45:00 27.41 Km\h Look 965 SR
10/06/2013 Show to everybody colle gallo 20.29 Km 449 m 00:58:42 20.74 Km\h Cannondale Flash 1
08/06/2013 Show to everybody Grumello del Monte 86.12 Km 762 m 03:13:34 26.69 Km\h Look 965 SR
07/06/2013 Show to everybody temporale 31.04 Km 182 m 01:07:15 27.69 Km\h Look 965 SR
06/06/2013 Show to everybody Grumello del Monte 63.92 Km 271 m 02:13:41 28.69 Km\h Look 965 SR
04/06/2013 Show to everybody Clusone - Sovere - Colle Gallo 72 Km 859 m 02:56:49 24.43 Km\h Cannondale Supersix
02/06/2013 Show to everybody Clusone - Sovere - Solto Collina - Franciacorta 114.91 Km 1057 m 04:09:22 27.65 Km\h Look 965 SR
01/06/2013 Show to everybody Sarnico - Solto Collina - Valle Rossa 104.8 Km 962 m 04:10:57 25.06 Km\h Cannondale Supersix
31/05/2013 Show to everybody Songavazzo - Albano S.Alessandro 85.99 Km 606 m 03:14:30 26.53 Km\h Cannondale Supersix
23/05/2013 Show to everybody Allenamento dimagrante 34.98 Km 216 m 01:19:31 26.4 Km\h Cannondale Supersix
20/05/2013 Show to everybody Valle Rossa - Colle Gallo 36.98 Km 698 m 01:51:53 19.83 Km\h Cannondale Flash 1
18/05/2013 Show to everybody Orezzo - Selvino 34.94 Km 728 m 01:58:29 17.7 Km\h Cannondale Flash 1
17/05/2013 Show to everybody Casnigo - S.Rocco - Valle Rossa 21.05 Km 277 m 00:57:39 21.91 Km\h Cannondale Flash 1
15/05/2013 Show to everybody Gandellino 69.18 Km 482 m 02:30:54 27.51 Km\h Cannondale Supersix
14/05/2013 Show to everybody Olmo al Brembo 118.34 Km 1270 m 04:45:36 24.86 Km\h Look 965 SR
13/05/2013 Show to everybody Valle Rossa 19 Km 335 m 00:47:50 23.83 Km\h Cannondale Supersix
12/05/2013 Show to everybody Bergamo Bassa 63.85 Km 379 m 02:21:49 27.01 Km\h Cannondale Supersix
09/05/2013 Show to everybody Clusone - Sovere - Valle Rossa 56.76 Km 665 m 02:13:42 25.47 Km\h Cannondale Supersix
08/05/2013 Show to everybody Colle Gallo 21.39 Km 458 m 01:01:10 20.98 Km\h Cannondale Flash 1
01/01/2010 Show to everybody passodelvivione 72.24 Km 1757 m 05:44:13 12.59 Km\h Cannondale Supersix

Show previous years trainings
This user's bikes.
Look 965 SR 150 9694.54 Km 97269 m 377:23:02 25.64 Km/h
Cannondale Supersix 211 13103.77 Km 116853 m 516:11:52 25.35 Km/h
Cannondale Flash 1 50 1584.9 Km 28483 m 81:10:26 19.6 Km/h

364 points
Kilometers
0
Vertical gain
0
Rank:45

Watch ranking »

 

Bike name

Delete this bike?

Now you follow this users and you can compare your trainings

If you stop following this users you will not be able to compare your trainings with his


bdc-forum.it | 2012-2020 Training Camp v.1.0.15